[[{"header":{"parameterUnit":"m.s-1","parameterCategory":1,"la1":30.2991,"la2":30.254,"lo1":-89.0895,"lo2":-89.0444,"dy":0.0017,"dx":0.0017,"nx":28,"ny":28,"refTime":"2023-10-15T09:00:00:Z","depth":0,"parameterNumber":2,"parameterNumberName":"U-component_of_WINDS"},"data":[0,0,0,0,0,0,0,0,0,0,0,0,0,0,0,0,0,0,0,0,0,0,0,0,0,0,0,0,0,0,0,0,0,0,0,0,0,0,0,0,0,0,0,0,0,0,0,0,0,0,0,0,0,0,0,0,0,0,2.4172,2.4172,0,2.4176,2.4176,2.4176,2.4154,2.4153,2.4152,2.4152,2.4156,2.4157,2.4157,0,0,0,0,0,0,0,0,0,0,0,0,0,2.4146,2.4146,2.4172,2.4172,2.4172,2.4176,2.4176,2.4176,2.4154,2.4153,2.4152,2.4151,2.4156,2.4157,2.4158,0,0,0,0,0,0,0,0,0,0,0,0,0,2.4154,2.4146,2.4172,2.4161,2.416,2.4176,2.4176,2.4176,2.4154,2.4153,2.4152,2.4151,2.4156,2.4157,2.4158,2.4184,0,0,2.4161,2.4161,0,0,0,0,0,0,0,0,2.4154,2.4155,2.4163,2.4162,2.4161,2.4163,2.4168,2.4179,2.4154,2.4156,2.4152,2.415,2.4159,2.416,2.4163,2.4184,2.4184,2.4161,2.4162,2.4162,2.4162,0,0,0,0,0,0,0,2.4153,2.4155,2.4173,2.4163,2.4162,2.4157,2.4157,2.417,2.4163,2.4156,2.4154,2.4155,2.4159,2.4162,2.4163,2.4184,2.4161,2.4162,2.4163,2.4163,2.4229,2.423,0,0,0,0,0,0,2.4154,2.4154,2.4173,2.4173,2.4155,2.4158,2.4158,2.4163,2.4163,2.4162,2.4156,2.4154,2.416,2.4162,2.4163,2.4194,2.4162,2.4163,2.4164,2.4227,2.4229,2.423,0,0,0,0,0,0,2.4153,2.4156,2.4173,2.4163,2.4165,2.4159,2.4166,2.4164,2.4167,2.4163,2.4162,2.4161,2.416,2.4161,2.4179,2.4194,2.4164,2.4165,2.4226,2.4228,2.4229,2.4256,0,0,0,0,0,0,2.4153,2.4156,2.4165,2.4164,2.4166,2.4189,2.4166,2.4165,2.4169,2.4167,2.4167,2.4166,2.4159,2.4178,2.418,2.4195,2.4165,2.4225,2.4227,2.4229,2.4254,2.4259,2.4263,0,0,0,0,0,2.4152,2.4172,2.4165,2.4168,2.4177,2.4189,2.4191,2.4182,2.417,2.418,2.4178,2.4166,2.4192,2.418,2.4182,2.4198,2.4224,2.4226,2.4229,2.4252,2.4258,2.4263,0,0,0,0,0,0,2.4174,2.4172,2.4164,2.4185,2.4188,2.4186,2.4197,2.4188,2.4195,2.4192,2.4182,2.4182,2.4202,2.4201,2.4188,2.4224,2.4206,2.4209,2.4223,2.4228,2.4232,2.4232,2.4166,0,0,0,0,0,2.4182,2.4192,2.4189,2.4207,2.4209,2.4203,2.4208,2.4202,2.4204,2.4205,2.4204,2.4207,2.4216,2.4222,2.423,2.4254,2.4255,2.4266,2.4271,2.4274,2.4277,2.4291,2.4296,2.4238,2.4238,2.4238,0,0,2.4197,2.4197,2.4203,2.4212,2.4213,2.4224,2.4204,2.4216,2.4224,2.4207,2.4224,2.4223,2.4226,2.4248,2.4257,2.4248,2.4293,2.4277,2.428,2.4281,2.4294,2.43,2.4305,2.424,2.4239,2.4239,0,0,2.423,2.4231,2.4247,2.4249,2.4252,2.4248,2.4252,2.4252,2.4251,2.4268,2.4256,2.4266,2.4281,2.4284,2.4288,2.4325,2.4315,2.4328,2.435,2.4364,2.4369,2.4373,2.4386,2.4391,2.4331,2.4331,2.4331,0,2.4249,2.4264,2.4256,2.4269,2.4274,2.426,2.4276,2.4279,2.4284,2.4288,2.4278,2.4298,2.4299,2.4322,2.4331,2.4334,2.4339,2.4327,2.4369,2.4373,2.4376,2.4389,2.4394,2.4332,2.4332,2.4332,2.4332,0,2.4288,2.4299,2.4312,2.4318,2.4324,2.4338,2.4333,2.434,2.4334,2.4332,2.435,2.4351,2.436,2.4365,2.4358,2.4387,2.4381,2.437,2.4352,2.4383,2.4396,2.4401,2.4335,2.4334,2.4334,2.4333,0,0,2.4334,2.4336,2.4341,2.4344,2.4347,2.4356,2.4371,2.438,2.4387,2.4392,2.4404,2.4419,2.4409,2.4413,2.4408,2.442,2.445,2.4407,2.4407,2.4416,2.4483,2.4491,2.4497,2.4444,2.4445,2.4446,2.4483,0,2.4367,2.4392,2.4386,2.4411,2.4422,2.441,2.4423,2.4427,2.4426,2.4435,2.4434,2.4445,2.4431,2.4434,2.4445,2.4444,2.4464,2.4441,2.4456,2.4457,2.4456,2.4503,2.4512,2.4547,2.4488,2.4488,2.4489,0,2.4408,2.4415,2.4442,2.4445,2.4449,2.4461,2.4469,2.4478,2.4483,2.4482,2.4487,2.448,2.4496,2.4478,2.45,2.4485,2.4491,2.4492,2.4493,2.4494,2.4474,2.4505,2.4557,2.4563,2.4496,2.4496,2.4495,0,2.444,2.4456,2.4474,2.4477,2.4481,2.449,2.4492,2.4495,2.4502,2.4509,2.4514,2.4523,2.4528,2.4536,2.4532,2.4519,2.4555,2.4537,2.4555,2.4555,2.4562,2.4562,2.4616,2.4566,2.4566,2.4566,2.4566,0,2.4477,2.4494,2.4489,2.45,2.4519,2.4512,2.4532,2.4532,2.4536,2.4548,2.4538,2.4549,2.4543,2.4554,2.4551,2.457,2.4573,2.4572,2.4571,2.4573,2.4573,2.4576,2.4574,2.4567,2.4567,2.4567,2.4567,0,2.4515,2.4512,2.4531,2.4534,2.4535,2.4549,2.4551,2.4562,2.4561,2.4576,2.4579,2.4578,2.4591,2.4587,2.4601,2.4599,2.4624,2.462,2.4622,2.4621,2.4639,2.4638,2.4697,2.4705,2.465,2.4651,2.4651,0,2.4539,2.4552,2.4556,2.4563,2.4566,2.4578,2.4584,2.4579,2.4587,2.4594,2.4605,2.4617,2.4626,2.4647,2.4647,2.4658,2.4655,2.4675,2.4656,2.4658,2.4655,2.4655,2.4656,2.4678,2.4679,2.4679,2.468,0,2.4582,2.458,2.459,2.46,2.4609,2.4616,2.4623,2.4629,2.4625,2.4634,2.4647,2.4655,2.4669,2.4682,2.4692,2.4695,2.4687,2.4686,2.4691,2.4693,2.4694,2.4694,2.4632,2.4684,2.4684,2.4684,2.4683,2.4683,2.4614,2.4625,2.463,2.4642,2.4647,2.4654,2.4665,2.4665,2.4676,2.4688,2.4684,2.47,2.4706,2.4719,2.4723,2.4736,2.4728,2.4735,2.4737,2.4738,2.4741,2.4692,2.4738,2.4738,2.4737,2.4737,2.4737,0,2.4656,2.466,2.4671,2.4681,2.469,2.4683,2.469,2.4699,2.4713,2.4719,2.4729,2.4745,2.4757,2.4759,2.4771,2.4781,2.4778,2.4785,2.4784,2.4785,2.4747,2.4741,2.4787,2.4787,2.4787,2.4787,2.4787,2.4787,2.468,2.4699,2.4698,2.472,2.4723,2.4738,2.4744,2.475,2.4756,2.4774,2.4784,2.4786,2.4791,2.4804,2.4815,2.4816,2.4821,2.4829,2.4828,2.4792,2.4787,2.4782,2.4777,2.483,2.483,2.4865,2.4865,2.4865]},{"header":{"parameterUnit":"m.s-1","parameterCategory":1,"la1":30.2991,"la2":30.254,"lo1":-89.0895,"lo2":-89.0444,"dy":0.0017,"dx":0.0017,"nx":28,"ny":28,"refTime":"2023-10-15T09:00:00:Z","depth":0,"parameterNumber":3,"parameterNumberName":"V-component_of_WINDS"},"data":[0,0,0,0,0,0,0,0,0,0,0,0,0,0,0,0,0,0,0,0,0,0,0,0,0,0,0,0,0,0,0,0,0,0,0,0,0,0,0,0,0,0,0,0,0,0,0,0,0,0,0,0,0,0,0,0,0,0,-6.3528,-6.3529,0,-6.3621,-6.3622,-6.3623,-6.3611,-6.361,-6.3608,-6.3607,-6.3696,-6.37,-6.3704,0,0,0,0,0,0,0,0,0,0,0,0,0,-6.3338,-6.3342,-6.3528,-6.3529,-6.353,-6.362,-6.3622,-6.3623,-6.3612,-6.361,-6.3608,-6.3606,-6.3695,-6.37,-6.3704,0,0,0,0,0,0,0,0,0,0,0,0,0,-6.3425,-6.3343,-6.3528,-6.3536,-6.3537,-6.362,-6.3622,-6.3623,-6.3612,-6.361,-6.3607,-6.3605,-6.3694,-6.3699,-6.3705,-6.3784,0,0,-6.3722,-6.3724,0,0,0,0,0,0,0,0,-6.342,-6.3432,-6.3533,-6.3535,-6.3537,-6.3602,-6.3588,-6.3677,-6.3612,-6.3583,-6.3607,-6.3604,-6.3666,-6.3674,-6.3696,-6.3788,-6.3792,-6.3722,-6.3726,-6.3728,-6.373,0,0,0,0,0,0,0,-6.3414,-6.3428,-6.3564,-6.3535,-6.3537,-6.3534,-6.3543,-6.3604,-6.3636,-6.3586,-6.3585,-6.3597,-6.3667,-6.3691,-6.3698,-6.3793,-6.3722,-6.3727,-6.3731,-6.3733,-6.3957,-6.396,0,0,0,0,0,0,-6.3406,-6.3423,-6.3562,-6.3567,-6.3472,-6.3539,-6.355,-6.3584,-6.3635,-6.3641,-6.3598,-6.3596,-6.3682,-6.3692,-6.3701,-6.3799,-6.3728,-6.3734,-6.3737,-6.3955,-6.3958,-6.396,0,0,0,0,0,0,-6.3402,-6.3419,-6.3558,-6.3495,-6.3512,-6.3544,-6.3582,-6.3587,-6.361,-6.3645,-6.365,-6.3617,-6.3681,-6.3693,-6.3764,-6.3802,-6.3736,-6.3741,-6.3952,-6.3955,-6.3959,-6.3994,0,0,0,0,0,0,-6.3397,-6.3418,-6.3449,-6.3496,-6.3516,-6.362,-6.3585,-6.359,-6.3621,-6.3618,-6.3664,-6.3669,-6.368,-6.3756,-6.377,-6.3808,-6.3746,-6.3948,-6.3953,-6.3958,-6.399,-6.3998,-6.4006,0,0,0,0,0,-6.339,-6.3453,-6.345,-6.3467,-6.3556,-6.3623,-6.3634,-6.3646,-6.3624,-6.3655,-6.3678,-6.3668,-6.3796,-6.3763,-6.3779,-6.382,-6.3946,-6.3952,-6.3957,-6.3986,-6.3997,-6.4006,0,0,0,0,0,0,-6.3407,-6.3459,-6.3457,-6.3537,-6.3576,-6.3621,-6.366,-6.3657,-6.3702,-6.3697,-6.3709,-6.372,-6.3792,-6.3813,-6.3776,-6.39,-6.3868,-6.3877,-6.3884,-6.3894,-6.3903,-6.3896,-6.375,0,0,0,0,0,-6.3421,-6.3472,-6.3514,-6.3581,-6.3601,-6.3628,-6.3657,-6.3664,-6.3703,-6.3719,-6.3747,-6.3785,-6.3834,-6.3865,-6.3912,-6.3993,-6.4003,-6.4029,-6.4037,-6.4044,-6.4051,-6.4097,-6.4109,-6.3979,-6.3979,-6.3979,0,0,-6.3448,-6.3483,-6.3514,-6.3585,-6.3616,-6.3668,-6.3641,-6.3697,-6.3735,-6.3727,-6.3797,-6.3819,-6.3861,-6.3938,-6.3973,-6.3958,-6.409,-6.4051,-6.4056,-6.406,-6.4104,-6.4116,-6.4127,-6.3983,-6.3983,-6.3982,0,0,-6.3525,-6.3557,-6.3617,-6.3649,-6.3697,-6.3715,-6.3729,-6.3775,-6.379,-6.3861,-6.3856,-6.3901,-6.3985,-6.4016,-6.4043,-6.4135,-6.4128,-6.415,-6.4193,-6.4237,-6.4248,-6.4257,-6.429,-6.4302,-6.4158,-6.4158,-6.4158,0,-6.3552,-6.3632,-6.3647,-6.3705,-6.3736,-6.3734,-6.3795,-6.3825,-6.3884,-6.3906,-6.3888,-6.3995,-6.4024,-6.4108,-6.4131,-6.4153,-6.417,-6.4144,-6.4245,-6.4255,-6.4263,-6.4295,-6.4308,-6.416,-6.416,-6.416,-6.4159,0,-6.3664,-6.372,-6.3762,-6.3823,-6.386,-6.3918,-6.3941,-6.3976,-6.3981,-6.4,-6.4072,-6.4107,-6.4162,-6.4182,-6.4186,-6.4268,-6.4258,-6.4243,-6.421,-6.4278,-6.4308,-6.432,-6.4163,-6.4163,-6.4162,-6.4161,0,0,-6.3752,-6.3823,-6.3838,-6.3867,-6.3921,-6.3963,-6.4022,-6.4078,-6.4108,-6.415,-6.4199,-6.4272,-6.4259,-6.429,-6.4297,-6.4336,-6.4408,-6.4316,-6.4318,-6.4332,-6.4502,-6.4513,-6.4527,-6.4404,-6.4406,-6.4408,-6.4498,0,-6.3835,-6.3941,-6.3957,-6.405,-6.4102,-6.4102,-6.4153,-6.4191,-6.4212,-6.4258,-6.4279,-6.4331,-6.431,-6.4329,-6.4367,-6.4391,-6.4442,-6.4385,-6.4449,-6.4452,-6.4439,-6.4542,-6.4554,-6.4637,-6.451,-6.4512,-6.4514,0,-6.3944,-6.3993,-6.4091,-6.4141,-6.4163,-6.4209,-6.4262,-6.4307,-6.435,-6.4362,-6.4398,-6.4402,-6.4462,-6.4428,-6.4512,-6.4472,-6.45,-6.4516,-6.4519,-6.4525,-6.4486,-6.4551,-6.4664,-6.4676,-6.4532,-6.4531,-6.4529,0,-6.4,-6.4089,-6.416,-6.4184,-6.4243,-6.4276,-6.4301,-6.4343,-6.4376,-6.4422,-6.4444,-6.4496,-6.4524,-6.4564,-6.4581,-6.4555,-6.4664,-6.4631,-6.4675,-6.4675,-6.4697,-6.4696,-6.4816,-6.4716,-6.4715,-6.4715,-6.4715,0,-6.409,-6.415,-6.4186,-6.4229,-6.4298,-6.4316,-6.4382,-6.4407,-6.4444,-6.4492,-6.4495,-6.4539,-6.4559,-6.4607,-6.4621,-6.4688,-6.4701,-6.4712,-6.4715,-6.4712,-6.471,-6.4729,-6.4724,-6.4719,-6.4718,-6.4717,-6.4717,0,-6.4162,-6.4188,-6.4266,-6.4317,-6.4331,-6.4379,-6.4422,-6.4464,-6.4485,-6.4546,-6.4561,-6.4593,-6.465,-6.4671,-6.4739,-6.4749,-6.4827,-6.4825,-6.4813,-6.4814,-6.4857,-6.4853,-6.4993,-6.5013,-6.49,-6.4901,-6.4902,0,-6.4218,-6.4265,-6.4322,-6.4355,-6.4383,-6.4436,-6.4471,-6.4491,-6.4527,-6.4582,-6.4618,-6.4675,-6.4721,-6.4811,-6.484,-6.4893,-6.4892,-6.4938,-6.49,-6.4896,-6.4893,-6.489,-6.4895,-6.4944,-6.4946,-6.4946,-6.4947,0,-6.4314,-6.4326,-6.4377,-6.4433,-6.4475,-6.452,-6.4563,-6.459,-6.4617,-6.4657,-6.4716,-6.4752,-6.4824,-6.488,-6.4935,-6.496,-6.4958,-6.496,-6.4973,-6.497,-6.4961,-6.4967,-6.4832,-6.4956,-6.4955,-6.4954,-6.4954,-6.4953,-6.438,-6.4423,-6.447,-6.4528,-6.4563,-6.4604,-6.4647,-6.4675,-6.4725,-6.4786,-6.4795,-6.4858,-6.4902,-6.4976,-6.5004,-6.5053,-6.5041,-6.5059,-6.5064,-6.5069,-6.5072,-6.4954,-6.5063,-6.5063,-6.5063,-6.5062,-6.5062,0,-6.4477,-6.4509,-6.4561,-6.4623,-6.4669,-6.4666,-6.4714,-6.4751,-6.4808,-6.485,-6.4897,-6.4966,-6.5021,-6.5056,-6.5111,-6.5144,-6.5145,-6.5158,-6.5156,-6.5162,-6.5079,-6.5063,-6.5157,-6.5157,-6.5157,-6.5157,-6.5157,-6.5157,-6.4533,-6.4606,-6.4623,-6.4713,-6.4744,-6.4808,-6.4836,-6.4874,-6.4908,-6.4985,-6.5032,-6.5055,-6.5094,-6.5153,-6.5204,-6.5213,-6.5233,-6.5247,-6.5255,-6.5177,-6.5167,-6.5158,-6.5142,-6.5252,-6.5252,-6.5333,-6.5334,-6.5334]}]]